Location: ??
(34.7707°N, 135.6540°E)
Time: 09:15:23
(UTC+00:00)

X-37B - Visible Passes

Search period start: 27 September 2021 00:00
Search period end: 07 October 2021 00:00
Orbit: 381 x 393 km, 45.0° (Epoch: 29 August)

Date Brightness Start Highest point End Pass type
(mag) Time Alt. Az. Time Alt. Az. Time Alt. Az.
27 Sep 3.7 18:44:11 12° NNE 18:44:11 12° NNE 18:44:35 10° NNE visible
27 Sep 3.2 20:18:24 10° NNW 20:20:12 14° N 20:22:00 10° NE visible
28 Sep 3.2 19:20:46 12° NNW 19:21:31 13° N 19:23:03 10° NNE visible
29 Sep 3.0 19:58:06 10° NNW 20:00:19 17° NNE 20:02:33 10° ENE visible
30 Sep 3.3 19:01:44 14° N 19:01:44 14° N 19:03:28 10° NE visible
01 Oct 2.6 19:38:28 14° NNW 19:40:23 24° NNE 19:43:02 10° ENE visible
02 Oct 3.6 18:42:59 15° NE 18:42:59 15° NE 18:44:01 10° ENE visible
02 Oct 0.7 20:15:39 10° NW 20:18:48 74° NNE 20:21:57 10° ESE visible
03 Oct 1.7 19:19:54 36° N 19:20:22 38° NNE 19:23:21 10° E visible
04 Oct 0.8 19:56:58 23° WNW 19:58:37 50° SW 20:01:41 10° SE visible
05 Oct 2.6 19:01:49 27° ESE 19:01:49 27° ESE 19:03:25 10° ESE visible
06 Oct 2.3 19:39:08 21° SSW 19:39:08 21° SSW 19:40:55 10° SSE visible
